Date String (YYYY-MM-DD hh:mm:ss) UTC,Instrument flags,absolute air pressure of the measurement (hPa),sample flow rate (lpm),inlet stack bypass flow (lpm),air temperature of the measurement (°C),ambient temperature measured by the external sensor (°C),aerosol sample conditioner tube jacket temperature (°C),OPC LED temperature (°C),internal box temperature (°C),relative humidity of the measurement (%),span deviation,mass concentration of particles derived from Lorenz-Mie calculation of OPC scattering (μg/m³),mass concentration of particles derived from Lorenz-Mie calculation of OPC scattering (μg/m³),mass concentration of particles derived from Lorenz-Mie calculation of OPC scattering (μg/m³)
DateTimeUTC,F1_M11,P_M11,Q1_M11,Q2_M11,T1_M11,T2_M11,T3_M11,T4_M11,T5_M11,U1_M11,ZSPAN_M11,X0_M11,X2_M11,X1_M11
2023-10-25 22:00:00,SystemResetWarning,0823.7,5.00,000.00,028.8,024.7,000.0,037.1,030.4,22.5,-002.5,0029.40,0016.99,0014.85
2023-10-25 22:01:00,SystemResetWarning,0823.6,5.01,000.00,028.7,024.0,000.0,037.1,030.2,22.6,-002.4,0029.63,0017.01,0014.84
2023-10-25 22:02:00,SystemResetWarning,0823.6,5.02,000.00,028.6,024.3,000.0,037.0,030.0,22.8,-002.2,0029.52,0016.99,0014.82
2023-10-25 22:03:00,SystemResetWarning,0823.6,4.99,000.00,028.5,024.7,000.0,037.0,030.0,23.0,-002.3,0030.29,0017.00,0014.82
2023-10-25 22:04:00,SystemResetWarning,0823.6,5.00,000.00,028.5,025.2,000.0,037.0,030.0,23.0,-002.5,0029.63,0016.98,0014.81
2023-10-25 22:05:00,SystemResetWarning,0823.6,4.99,000.00,028.5,025.7,000.0,037.0,030.1,23.1,-002.4,0028.93,0016.95,0014.81
2023-10-25 22:06:00,SystemResetWarning,0823.6,5.00,000.00,028.5,026.1,000.0,037.0,030.2,23.2,-002.3,0028.91,0016.97,0014.82
2023-10-25 22:07:00,SystemResetWarning,0823.6,5.00,000.00,028.5,026.5,000.0,037.0,030.2,23.1,-002.3,0029.22,0017.07,0014.85
2023-10-25 22:08:00,SystemResetWarning,0823.7,4.99,000.00,028.6,026.8,000.0,037.0,030.3,23.1,-002.2,0029.32,0017.03,0014.86
2023-10-25 22:09:00,SystemResetWarning,0823.7,4.99,000.00,028.6,027.1,000.0,037.0,030.4,23.0,-002.2,0029.21,0016.98,0014.84
2023-10-25 22:10:00,SystemResetWarning,0823.7,4.99,000.00,028.6,027.3,000.0,037.0,030.5,23.0,-001.9,0029.72,0017.09,0014.85
2023-10-25 22:11:00,SystemResetWarning,0823.7,5.00,000.00,028.7,027.5,000.0,037.0,030.5,23.0,-002.0,0029.72,0017.09,0014.85
2023-10-25 22:12:00,SystemResetWarning,0823.7,5.00,000.00,028.7,027.6,000.0,037.0,030.6,22.9,-001.9,0029.76,0017.10,0014.84
2023-10-25 22:13:00,SystemResetWarning,0823.7,5.01,000.00,028.8,027.7,000.0,037.1,030.7,22.8,-001.7,0031.22,0017.12,0014.83
2023-10-25 22:14:00,SystemResetWarning,0823.7,5.00,000.00,028.8,027.9,000.0,037.1,030.7,22.8,-001.5,0031.05,0017.08,0014.83
2023-10-25 22:15:00,SystemResetWarning,0823.7,5.00,000.00,028.9,027.9,000.0,037.1,030.8,22.8,-001.5,0031.55,0017.16,0014.85
2023-10-25 22:16:00,SystemResetWarning,0823.8,5.00,000.00,028.9,028.0,000.0,037.1,030.8,22.7,-001.6,0033.53,0017.23,0014.85
2023-10-25 22:17:00,SystemResetWarning,0823.8,4.98,000.00,028.9,027.0,000.0,037.2,030.7,22.6,-001.8,0033.90,0017.26,0014.85
2023-10-25 22:18:00,SystemResetWarning,0823.7,5.00,000.00,028.9,024.9,000.0,037.1,030.4,22.7,-001.7,0034.08,0017.26,0014.83
2023-10-25 22:19:00,SystemResetWarning,0823.7,5.00,000.00,028.7,024.0,000.0,037.0,030.2,22.8,-001.8,0035.35,0017.25,0014.82
2023-10-25 22:20:00,SystemResetWarning,0823.7,5.01,000.00,028.6,024.2,000.0,037.0,030.0,23.1,-001.9,0035.97,0017.20,0014.82
2023-10-25 22:21:00,SystemResetWarning,0823.7,5.01,000.00,028.5,024.6,000.0,037.0,029.9,23.2,-002.2,0036.11,0017.00,0014.78
2023-10-25 22:22:00,SystemResetWarning,0823.8,4.99,000.00,028.5,025.1,000.0,037.0,030.0,23.3,-002.3,0035.26,0016.97,0014.75
2023-10-25 22:23:00,SystemResetWarning,0823.7,5.00,000.00,028.5,025.6,000.0,037.0,030.1,23.2,-002.5,0034.61,0016.93,0014.73
2023-10-25 22:24:00,SystemResetWarning,0823.7,5.01,000.00,028.5,026.0,000.0,037.0,030.1,23.2,-002.7,0033.14,0016.95,0014.75
2023-10-25 22:25:00,SystemResetWarning,0823.7,5.01,000.00,028.5,026.4,000.0,036.9,030.2,23.1,-002.7,0032.71,0016.96,0014.76
2023-10-25 22:26:00,SystemResetWarning,0823.7,5.00,000.00,028.5,026.7,000.0,036.9,030.3,23.1,-002.7,0033.67,0016.92,0014.74
2023-10-25 22:27:00,SystemResetWarning,0823.7,5.00,000.00,028.5,027.0,000.0,036.9,030.4,23.1,-002.6,0032.13,0016.83,0014.72
2023-10-25 22:28:00,SystemResetWarning,0823.7,5.00,000.00,028.6,027.2,000.0,037.0,030.4,23.0,-002.7,0032.10,0016.78,0014.69
2023-10-25 22:29:00,SystemResetWarning,0823.7,5.00,000.00,028.6,027.4,000.0,037.0,030.5,23.0,-002.7,0032.67,0016.77,0014.70
2023-10-25 22:30:00,SystemResetWarning,0823.7,5.00,000.00,028.7,027.5,000.0,037.0,030.6,22.9,-002.9,0032.48,0016.84,0014.73
2023-10-25 22:31:00,SystemResetWarning,0823.8,5.00,000.00,028.7,027.7,000.0,037.0,030.6,22.8,-002.7,0032.89,0016.98,0014.74
2023-10-25 22:32:00,SystemResetWarning,0823.8,5.00,000.00,028.8,027.8,000.0,037.0,030.7,22.8,-002.6,0033.68,0017.05,0014.75
2023-10-25 22:33:00,SystemResetWarning,0823.8,5.00,000.00,028.8,027.9,000.0,037.1,030.7,22.7,-002.6,0033.83,0017.11,0014.76
2023-10-25 22:34:00,SystemResetWarning,0823.8,4.99,000.00,028.9,028.0,000.0,037.1,030.8,22.7,-002.5,0034.13,0017.12,0014.78
2023-10-25 22:35:00,SystemResetWarning,0823.8,4.99,000.00,028.9,028.1,000.0,037.1,030.8,22.6,-002.4,0034.92,0017.10,0014.76
2023-10-25 22:36:00,SystemResetWarning,0823.8,5.00,000.00,029.0,028.1,000.0,037.2,030.9,22.6,-002.4,0035.33,0017.13,0014.77
2023-10-25 22:37:00,SystemResetWarning,0823.8,5.00,000.00,029.0,026.5,000.0,037.2,030.7,22.6,-002.4,0035.04,0017.10,0014.78
2023-10-25 22:38:00,SystemResetWarning,0823.8,5.00,000.00,028.9,025.2,000.0,037.1,030.6,22.6,-002.4,0035.31,0017.12,0014.80
2023-10-25 22:39:00,SystemResetWarning,0823.8,5.01,000.00,028.8,025.1,000.0,037.1,030.3,22.7,-002.2,0035.02,0017.13,0014.84
2023-10-25 22:40:00,SystemResetWarning,0823.8,5.02,000.00,028.7,025.4,000.0,037.1,030.2,22.8,-002.3,0034.15,0017.09,0014.85
2023-10-25 22:41:00,SystemResetWarning,0823.8,5.00,000.00,028.7,025.8,000.0,037.1,030.3,22.8,-002.1,0032.95,0017.04,0014.83
2023-10-25 22:42:00,SystemResetWarning,0823.8,5.00,000.00,028.7,026.2,000.0,037.1,030.3,22.8,-002.1,0033.43,0016.99,0014.82
2023-10-25 22:43:00,SystemResetWarning,0823.8,5.00,000.00,028.7,026.6,000.0,037.1,030.4,22.8,-002.1,0032.53,0017.04,0014.84
2023-10-25 22:44:00,SystemResetWarning,0823.7,4.98,000.00,028.7,026.9,000.0,037.1,030.5,22.7,-002.2,0033.77,0017.02,0014.88
2023-10-25 22:45:00,SystemResetWarning,0823.8,4.99,000.00,028.8,027.2,000.0,037.1,030.6,22.8,-002.2,0034.13,0017.07,0014.90
2023-10-25 22:46:00,SystemResetWarning,0823.8,5.00,000.00,028.8,027.4,000.0,037.1,030.6,22.8,-002.4,0033.68,0017.06,0014.93
2023-10-25 22:47:00,SystemResetWarning,0823.8,5.01,000.00,028.9,027.6,000.0,037.2,030.7,22.7,-002.4,0033.17,0017.06,0014.95
2023-10-25 22:48:00,SystemResetWarning,0823.8,5.01,000.00,028.9,027.7,000.0,037.2,030.8,22.7,-002.3,0031.83,0017.04,0014.94
2023-10-25 22:49:00,SystemResetWarning,0823.8,5.00,000.00,028.9,027.9,000.0,037.2,030.8,22.6,-002.3,0031.34,0017.13,0014.94
2023-10-25 22:50:00,SystemResetWarning,0823.8,4.99,000.00,029.0,028.0,000.0,037.2,030.9,22.5,-002.4,0031.23,0017.28,0014.97
2023-10-25 22:51:00,SystemResetWarning,0823.8,4.99,000.00,029.0,027.1,000.0,037.2,030.8,22.4,-002.3,0030.83,0017.38,0014.99
2023-10-25 22:52:00,SystemResetWarning,0823.8,5.00,000.00,029.0,025.4,000.0,037.2,030.6,22.4,-002.4,0030.60,0017.46,0015.03
2023-10-25 22:53:00,SystemResetWarning,0823.8,5.00,000.00,028.9,025.0,000.0,037.2,030.5,22.5,-002.6,0029.45,0017.47,0015.05
2023-10-25 22:54:00,SystemResetWarning,0823.7,5.00,000.00,028.8,025.2,000.0,037.2,030.3,22.7,-002.5,0029.80,0017.48,0015.08
2023-10-25 22:55:00,SystemResetWarning,0823.8,5.01,000.00,028.7,025.6,000.0,037.2,030.3,22.7,-002.5,0028.57,0017.48,0015.09
2023-10-25 22:56:00,SystemResetWarning,0823.8,5.00,000.00,028.7,026.0,000.0,037.2,030.3,22.7,-002.6,0028.62,0017.44,0015.10
2023-10-25 22:57:00,SystemResetWarning,0823.8,5.00,000.00,028.7,026.4,000.0,037.1,030.4,22.8,-002.5,0029.06,0017.45,0015.11
2023-10-25 22:58:00,SystemResetWarning,0823.8,4.99,000.00,028.8,026.7,000.0,037.1,030.5,22.8,-002.4,0029.05,0017.39,0015.11
2023-10-25 22:59:00,SystemResetWarning,0823.8,4.99,000.00,028.8,027.0,000.0,037.2,030.6,22.7,-002.4,0031.22,0017.47,0015.14
